カタログに戻る

COSMOS 2251 DEB

運用中LEO
NORAD 33982·DEBRIS·🇷🇺 Russia

打ち上げ Jun 16, 1993 から Plesetsk Cosmodrome

Loading…

次のパス (今後24時間)

TLE

最新Source: Space-Track

元期: Sep 14, 2026, 05:26 UTC

1 33982U 93036FR  26257.22686639  .00000985  00000-0  19810-3 0  9994
2 33982  74.0694 194.5365 0074369 169.1135 261.7328 14.61293918931821

AllMySatでCOSMOS 2251 DEBをリアルタイム追跡

Download on the App Store